Location: Milton
(43.5183°N, 79.8775°W)
Time: 15:54:52
(UTC+00:00)

UNISAT 6 - Pass Details

Date: 21 March 2023
Orbit: 599 x 680 km, 97.7° (Epoch: 02 June)

Event Time Altitude Azimuth Distance (km) Brightness Sun altitude
Rises 10:33:20 0° 182° (S) 2,854 ? -9.5°
Reaches altitude 10° 10:35:34 10° 189° (S) 1,964 ? -9.1°
Maximum altitude 10:39:38 44° 262° (W) 870 ? -8.4°
Drops below altitude 10° 10:43:51 10° 335° (NNW) 2,023 ? -7.6°
Sets 10:46:11 0° 342° (NNW) 2,951 ? -7.2°
